User: anonymous   Login
Location: Unspecified
(0.0000°N, 0.0000°E)
Time: 04:04:33
(UTC+02:00)
Language:

Cosmos 1515 Rocket - Orbit

View from above orbital plane
View from above orbital plane
View from above satellite
View from above satellite

Ground track
Ground track

The orbit data is extracted from the following two-line orbital elements,

1 14552U 83122B   17147.91334622 +.00000076 +00000-0 +63343-5 0  9990
2 14552 082.5245 095.6108 0016117 222.4265 137.5705 14.83398542785086
Epoch (UTC): 27 May 2017 21:55:13
Eccentricity: 0.0016117
inclination: 82.5245°
perigee height: 607 km
apogee height: 630 km
right ascension of ascending node: 95.6108°
argument of perigee: 222.4265°
revolutions per day: 14.83398542
mean anomaly at epoch: 137.5705°
orbit number at epoch: 78508

The dashed part of the orbit path shows where the satellite is in the earth's shadow,  

DLR